TimeEDT,TemperatureF,Dew PointF,Humidity,Sea Level PressureIn,VisibilityMPH,Wind Direction,Wind SpeedMPH,Gust SpeedMPH,PrecipitationIn,Events,Conditions,WindDirDegrees,DateUTC
12:53 AM,66.9,57.9,73,30.14,10.0,Calm,Calm,-,N/A,,Clear,0,2012-09-27 04:53:00
1:53 AM,66.9,57.0,70,30.14,10.0,Calm,Calm,-,N/A,,Clear,0,2012-09-27 05:53:00
2:53 AM,64.9,57.0,75,30.12,10.0,Calm,Calm,-,N/A,,Clear,0,2012-09-27 06:53:00
3:53 AM,64.9,57.0,75,30.12,10.0,Variable,3.5,-,N/A,,Clear,0,2012-09-27 07:53:00
4:53 AM,64.0,57.0,78,30.13,10.0,Calm,Calm,-,N/A,,Clear,0,2012-09-27 08:53:00
5:53 AM,63.0,57.0,81,30.14,10.0,Calm,Calm,-,N/A,,Clear,0,2012-09-27 09:53:00
6:53 AM,63.0,57.0,81,30.15,10.0,Calm,Calm,-,N/A,,Clear,0,2012-09-27 10:53:00
7:53 AM,63.0,57.0,81,30.16,10.0,Calm,Calm,-,N/A,,Clear,0,2012-09-27 11:53:00
8:53 AM,63.0,57.9,84,30.18,10.0,Calm,Calm,-,0.00,Rain,Light Rain,0,2012-09-27 12:53:00
9:53 AM,64.9,59.0,81,30.17,10.0,Calm,Calm,-,0.00,,Mostly Cloudy,0,2012-09-27 13:53:00
10:53 AM,68.0,60.1,76,30.18,10.0,South,4.6,-,N/A,,Mostly Cloudy,180,2012-09-27 14:53:00
11:53 AM,72.0,61.0,68,30.17,10.0,Variable,5.8,-,N/A,,Scattered Clouds,0,2012-09-27 15:53:00
12:53 PM,71.1,62.1,73,30.16,10.0,Calm,Calm,-,N/A,,Clear,0,2012-09-27 16:53:00
1:53 PM,73.9,63.0,68,30.14,10.0,Calm,Calm,-,0.00,,Scattered Clouds,0,2012-09-27 17:53:00
2:53 PM,73.0,62.1,68,30.13,10.0,West,4.6,-,N/A,,Overcast,260,2012-09-27 18:53:00
3:53 PM,73.9,63.0,68,30.12,10.0,Variable,4.6,-,N/A,,Overcast,0,2012-09-27 19:53:00
4:53 PM,72.0,63.0,73,30.11,10.0,Calm,Calm,-,N/A,,Overcast,0,2012-09-27 20:53:00
5:53 PM,73.9,63.0,68,30.11,10.0,Variable,3.5,-,N/A,,Partly Cloudy,0,2012-09-27 21:53:00
6:53 PM,71.1,63.0,75,30.10,10.0,WNW,3.5,-,N/A,,Clear,290,2012-09-27 22:53:00
7:53 PM,70.0,61.0,73,30.10,10.0,West,4.6,-,N/A,,Partly Cloudy,280,2012-09-27 23:53:00
8:53 PM,69.1,61.0,75,30.11,10.0,Calm,Calm,-,N/A,,Clear,0,2012-09-28 00:53:00
9:53 PM,68.0,62.1,81,30.12,10.0,Calm,Calm,-,N/A,,Clear,0,2012-09-28 01:53:00
10:53 PM,68.0,63.0,84,30.12,10.0,Calm,Calm,-,N/A,,Mostly Cloudy,0,2012-09-28 02:53:00
11:53 PM,66.9,63.0,87,30.11,10.0,Calm,Calm,-,0.00,,Mostly Cloudy,0,2012-09-28 03:53:00